Location: *
(28.3744°N, 81.5492°W)
Time: 04:19:01
(UTC+00:00)

Cosmos 2058 - Pass Details

Date: 15 June 2025
Orbit: 532 x 546 km, 82.5° (Epoch: 11 July)

Event Time Altitude Azimuth Distance (km) Brightness Sun altitude
Exits shadow 09:30:00 17° 249° (WSW) 1,416 4.3 -11.9°
Maximum altitude 09:31:35 21° 281° (W) 1,243 4.2 -11.6°
Drops below altitude 10° 09:34:40 10° 332° (NNW) 1,813 5.5 -11.0°
Sets 09:37:14 0° 348° (NNW) 2,707 6.7 -10.6°
